sat.trackr.live / text

‹ back to catalog

ONEWEB-0040

NORAD 45147 · 2020-008S

PAYLOAD ACTIVE UNKNOWN

§ Identity

Operator
Country
UK
Launch date
2020-02-06
Launch site
TYMSC
Launch vehicle
Mass (kg)
RCS (m²)

Purposes: comms

External: N2YO · Heavens-Above · Gunter

§ Orbital elements

Epoch: 2026-09-20T00:54:15.501024Z

Period
109.89 min
Inclination
87.8895°
Eccentricity
0.0001817
Mean motion
13.10371132 rev/d
Perigee alt
1,220.3 km
Apogee alt
1,223.1 km
Semi-major
7,599.9 km
B*
-1.7427e-3
RAAN
17.3914°
Arg perigee
110.0568°
Mean anomaly
250.0755°
Rev number
32,028

§ Raw data

ONEWEB-00401 45147U 20008S   26263.03767941 -.00000596  00000+0 -17427-2 0  99912 45147  87.8895  17.3914 0001817 110.0568 250.0755 13.10371132320282

JSON: /api/v1/satellites/45147 · /tle

For live sub-satellite position, see the globe view (requires WebGL).

§ Visibility from observer

Set your observer location to see the next 7 days of passes ≥ 10°. The values pass through the URL so the page stays shareable.

No JS? Fill the form by hand. The geolocation button needs JavaScript.